CW0121 Weather Reports


Display with metric or nautical units.
time (UTC)temp
F
wind
direction
speed
MPH
gust
MPH
rain 1hr
in
rain 24hr
in
rain mn
in
humidity
%
barometer
mb
20260503042506 55 319 6.0 12.0 0.00 0.00 0.00 51 1008.0
20260503042007 55 284 6.0 12.0 0.00 0.00 0.00 51 1008.0
20260503041601 55 295 5.0 10.0 0.00 0.00 0.00 52 1006.5
20260503041524 55 300 5.0 10.0 0.00 0.00 0.00 51 1008.0
20260503041008 55 285 5.0 10.0 0.00 0.00 0.00 51 1008.0
20260503040511 55 293 4.0 9.0 0.00 0.00 0.00 51 1008.0
20260503040104 54 325 5.0 10.0 0.00 0.00 0.00 52 1006.4
20260503040032 54 281 5.0 10.0 0.00 0.00 0.00 52 1008.1
20260503035509 53 304 4.0 10.0 0.00 0.00 0.00 52 1008.1
20260503035011 54 297 2.0 5.0 0.00 0.00 0.00 52 1008.1
20260503034603 54 289 2.0 5.0 0.00 0.00 0.00 52 1006.5
20260503034525 54 303 2.0 6.0 0.00 0.00 0.00 51 1008.1
20260503034003 55 297 3.0 6.0 0.00 0.00 0.00 50 1008.1
20260503033510 55 301 3.0 6.0 0.00 0.00 0.00 49 1008.2
20260503033059 55 303 3.0 6.0 0.00 0.00 0.00 49 1006.5
20260503033018 55 304 3.0 6.0 0.00 0.00 0.00 48 1008.2
20260503032508 56 295 4.0 8.0 0.00 0.00 0.00 47 1008.2
20260503032009 57 290 4.0 8.0 0.00 0.00 0.00 46 1008.2
20260503031556 57 278 3.0 7.0 0.00 0.00 0.00 46 1006.5
20260503031527 57 321 4.0 7.0 0.00 0.00 0.00 46 1008.2
20260503031007 57 302 3.0 8.0 0.00 0.00 0.00 46 1008.2
20260503030508 58 293 3.0 9.0 0.00 0.00 0.00 45 1008.2
20260503030125 58 321 4.0 9.0 0.00 0.00 0.00 45 1006.5
20260503030025 58 303 4.0 9.0 0.00 0.00 0.00 44 1008.1
20260503025509 59 297 4.0 8.0 0.00 0.00 0.00 43 1008.0
20260503025008 59 278 4.0 8.0 0.00 0.00 0.00 43 1008.0
20260503024656 60 293 4.0 8.0 0.00 0.00 0.00 43 1006.4
20260503024525 60 300 5.0 8.0 0.00 0.00 0.00 42 1008.0
20260503024014 60 304 5.0 8.0 0.00 0.00 0.00 41 1007.9
20260503023510 60 302 4.0 10.0 0.00 0.00 0.00 41 1007.9
20260503023054 61 300 4.0 10.0 0.00 0.00 0.00 41 1006.2
20260503023029 61 314 5.0 10.0 0.00 0.00 0.00 41 1007.7
20260503022505 62 295 6.0 11.0 0.00 0.00 0.00 39 1007.7
20260503022010 62 319 6.0 11.0 0.00 0.00 0.00 38 1007.7
20260503021605 62 309 6.0 12.0 0.00 0.00 0.00 39 1006.1
20260503021520 62 299 6.0 12.0 0.00 0.00 0.00 39 1007.6
20260503021005 63 297 8.0 13.0 0.00 0.00 0.00 38 1007.6
20260503020511 63 314 7.0 13.0 0.00 0.00 0.00 38 1007.5
20260503020053 64 301 9.0 18.0 0.00 0.00 0.00 37 1005.9
20260503020024 64 329 8.0 18.0 0.00 0.00 0.00 37 1007.5
20260503015506 65 302 10.0 19.0 0.00 0.00 0.00 37 1007.5
20260503015006 65 314 12.0 19.0 0.00 0.00 0.00 35 1007.5
20260503014603 65 309 11.0 18.0 0.00 0.00 0.00 37 1005.8
20260503014524 65 296 11.0 18.0 0.00 0.00 0.00 37 1007.5
20260503014009 65 317 7.0 15.0 0.00 0.00 0.00 38 1007.3
20260503013509 65 303 3.0 5.0 0.00 0.00 0.00 38 1007.2
20260503013053 66 290 1.0 5.0 0.00 0.00 0.00 38 1005.5
20260503013028 66 295 2.0 5.0 0.00 0.00 0.00 38 1007.1
20260503012509 67 290 2.0 5.0 0.00 0.00 0.00 37 1007.1
20260503012009 67 257 2.0 4.0 0.00 0.00 0.00 37 1007.0
20260503011558 68 275 1.0 4.0 0.00 0.00 0.00 37 1005.4
20260503011536 68 285 2.0 5.0 0.00 0.00 0.00 35 1006.9
20260503011006 68 252 1.0 5.0 0.00 0.00 0.00 35 1006.8
20260503010506 69 316 2.0 5.0 0.00 0.00 0.00 35 1006.8
20260503010105 69 283 1.0 6.0 0.00 0.00 0.00 35 1005.2
20260503010027 69 259 2.0 6.0 0.00 0.00 0.00 34 1006.8
20260503005506 69 255 2.0 6.0 0.00 0.00 0.00 34 1006.8
20260503005007 69 295 2.0 7.0 0.00 0.00 0.00 33 1006.8
20260503004550 70 294 2.0 7.0 0.00 0.00 0.00 33 1005.3
20260503004524 70 299 2.0 10.0 0.00 0.00 0.00 33 1006.9
20260503004012 70 280 3.0 10.0 0.00 0.00 0.00 32 1006.8
20260503003509 70 313 3.0 9.0 0.00 0.00 0.00 32 1007.0
20260503003057 71 276 3.0 9.0 0.00 0.00 0.00 32 1005.4
20260503003025 71 298 3.0 9.0 0.00 0.00 0.00 32 1007.0
20260503002511 71 288 4.0 8.0 0.00 0.00 0.00 32 1007.0
20260503002012 71 293 3.0 7.0 0.00 0.00 0.00 31 1007.0
20260503001546 71 287 2.0 12.0 0.00 0.00 0.00 32 1005.6
20260503001528 71 264 3.0 12.0 0.00 0.00 0.00 32 1007.1
20260503001010 71 281 5.0 12.0 0.00 0.00 0.00 30 1007.1
20260503000512 71 264 3.0 15.0 0.00 0.00 0.00 31 1007.1
20260503000051 71 313 3.0 15.0 0.00 0.00 0.00 31 1005.7
20260503000043 71 260 4.0 23.0 0.00 0.00 0.00 30 1007.2
20260502235506 71 278 6.0 23.0 0.00 0.00 0.00 30 1007.4
20260502235006 72 276 9.0 21.0 0.00 0.00 0.00 28 1007.7
20260502234543 72 279 7.0 21.0 0.00 0.00 0.00 31 1006.1
20260502234520 72 285 4.0 13.0 0.00 0.00 0.00 30 1007.6
20260502234009 72 296 4.0 11.0 0.00 0.00 0.00 30 1007.4
20260502233508 72 268 4.0 16.0 0.00 0.00 0.00 30 1007.4
20260502233042 72 285 4.0 16.0 0.00 0.00 0.00 30 1006.0
20260502233025 72 315 5.0 16.0 0.00 0.00 0.00 29 1007.4
20260502232507 72 278 4.0 12.0 0.00 0.00 0.00 29 1007.4
20260502232009 72 280 6.0 12.0 0.00 0.00 0.00 29 1007.6
20260502231540 72 264 5.0 12.0 0.00 0.00 0.00 28 1006.1
20260502231533 72 243 5.0 12.0 0.00 0.00 0.00 28 1007.5
20260502231011 72 265 4.0 25.0 0.00 0.00 0.00 28 1007.5
20260502230510 72 287 12.0 25.0 0.00 0.00 0.00 27 1007.4
20260502230040 72 262 5.0 14.0 0.00 0.00 0.00 27 1006.3
20260502230026 73 288 6.0 16.0 0.00 0.00 0.00 26 1007.6
20260502225513 73 256 7.0 16.0 0.00 0.00 0.00 26 1007.6
20260502225013 72 240 13.0 16.0 0.00 0.00 0.00 24 1007.7
20260502224536 72 257 8.0 16.0 0.00 0.00 0.00 27 1006.4
20260502224530 72 264 9.0 16.0 0.00 0.00 0.00 26 1007.9
20260502224012 72 257 12.0 16.0 0.00 0.00 0.00 25 1007.8
20260502223506 72 248 10.0 14.0 0.00 0.00 0.00 25 1008.0
20260502223034 71 244 10.0 14.0 0.00 0.00 0.00 26 1006.9
20260502223029 71 263 10.0 14.0 0.00 0.00 0.00 26 1008.2
20260502222506 71 245 7.0 12.0 0.00 0.00 0.00 27 1008.3
20260502222012 70 233 4.0 13.0 0.00 0.00 0.00 28 1008.5
20260502221530 70 231 7.0 22.0 0.00 0.00 0.00 28 1007.3
20260502221526 70 212 7.0 22.0 0.00 0.00 0.00 27 1008.5
20260502221007 70 257 8.0 22.0 0.00 0.00 0.00 27 1008.9
20260502220512 71 233 13.0 21.0 0.00 0.00 0.00 25 1008.8
20260502220031 71 241 13.0 21.0 0.00 0.00 0.00 25 1007.3
20260502220028 71 238 13.0 24.0 0.00 0.00 0.00 25 1008.7
20260502215513 72 236 18.0 26.0 0.00 0.00 0.00 23 1008.8
20260502215013 72 223 16.0 28.0 0.00 0.00 0.00 24 1008.8
20260502214527 72 236 18.0 28.0 0.00 0.00 0.00 24 1007.6
20260502214013 72 241 14.0 25.0 0.00 0.00 0.00 23 1008.9
20260502213509 72 241 17.0 22.0 0.00 0.00 0.00 22 1008.9
20260502213037 71 229 14.0 22.0 0.00 0.00 0.00 24 1007.7
20260502212506 71 250 13.0 25.0 0.00 0.00 0.00 23 1009.0
20260502212011 71 238 13.0 25.0 0.00 0.00 0.00 23 1009.1
20260502211531 71 242 15.0 25.0 0.00 0.00 0.00 23 1009.3
20260502211526 71 235 15.0 25.0 0.00 0.00 0.00 23 1008.1
20260502211006 71 240 16.0 21.0 0.00 0.00 0.00 22 1009.4
20260502210502 71 248 15.0 23.0 0.00 0.00 0.00 23 1009.5
20260502210020 71 251 15.0 23.0 0.00 0.00 0.00 23 1008.5
20260502210008 71 242 15.0 23.0 0.00 0.00 0.00 23 1009.7
20260502205506 72 212 16.0 26.0 0.00 0.00 0.00 22 1009.8
20260502205004 71 227 12.0 26.0 0.00 0.00 0.00 25 1010.0
20260502204515 71 226 13.0 23.0 0.00 0.00 0.00 24 1009.0
20260502204512 71 227 13.0 23.0 0.00 0.00 0.00 24 1010.0
20260502204007 70 250 15.0 23.0 0.00 0.00 0.00 24 1010.2
20260502203506 70 243 17.0 23.0 0.00 0.00 0.00 22 1010.2
20260502203018 70 230 15.0 23.0 0.00 0.00 0.00 23 1010.2
20260502203013 70 222 15.0 23.0 0.00 0.00 0.00 24 1009.3
20260502202506 69 248 13.0 22.0 0.00 0.00 0.00 23 1010.4
20260502202006 69 226 13.0 22.0 0.00 0.00 0.00 23 1010.6
20260502201524 69 234 12.0 22.0 0.00 0.00 0.00 23 1010.6
20260502201520 69 240 11.0 22.0 0.00 0.00 0.00 24 1009.7
20260502201011 70 238 16.0 27.0 0.00 0.00 0.00 23 1010.8
20260502200508 69 238 21.0 27.0 0.00 0.00 0.00 22 1010.9
20260502200023 70 239 15.0 21.0 0.00 0.00 0.00 20 1011.0
20260502200007 70 232 14.0 21.0 0.00 0.00 0.00 21 1010.1
20260502195502 70 224 14.0 20.0 0.00 0.00 0.00 19 1011.1
20260502195003 70 217 13.0 24.0 0.00 0.00 0.00 19 1011.3
20260502194508 69 240 17.0 24.0 0.00 0.00 0.00 20 1011.4
20260502194502 69 245 17.0 24.0 0.00 0.00 0.00 20 1010.5
20260502194003 69 227 15.0 21.0 0.00 0.00 0.00 21 1011.4
20260502193507 69 221 15.0 24.0 0.00 0.00 0.00 20 1011.5
20260502193100 68 259 16.0 25.0 0.00 0.00 0.00 19 1010.7
20260502193016 68 234 16.0 25.0 0.00 0.00 0.00 19 1011.6
20260502192510 68 240 20.0 29.0 0.00 0.00 0.00 18 1011.6
20260502192006 68 259 19.0 29.0 0.00 0.00 0.00 18 1011.7
20260502191600 69 243 22.0 29.0 0.00 0.00 0.00 18 1011.0
20260502191520 69 232 20.0 29.0 0.00 0.00 0.00 18 1011.7
20260502191006 69 219 19.0 29.0 0.00 0.00 0.00 19 1011.8
20260502190511 69 226 17.0 26.0 0.00 0.00 0.00 20 1011.8
20260502190055 68 245 17.0 26.0 0.00 0.00 0.00 20 1011.2
20260502190033 68 214 19.0 26.0 0.00 0.00 0.00 19 1011.9
20260502185507 68 221 17.0 26.0 0.00 0.00 0.00 20 1012.1
20260502185009 68 236 19.0 27.0 0.00 0.00 0.00 20 1012.3
20260502184551 68 251 15.0 27.0 0.00 0.00 0.00 21 1011.5
20260502184528 68 235 17.0 27.0 0.00 0.00 0.00 20 1012.4
20260502184002 67 244 22.0 27.0 0.00 0.00 0.00 19 1012.5
20260502183504 67 236 16.0 26.0 0.00 0.00 0.00 20 1012.5
20260502183049 67 232 20.0 31.0 0.00 0.00 0.00 20 1011.9
20260502183011 67 236 20.0 31.0 0.00 0.00 0.00 19 1012.7
20260502182507 67 239 24.0 31.0 0.00 0.00 0.00 20 1013.0
20260502182006 67 226 18.0 28.0 0.00 0.00 0.00 20 1013.1
20260502181605 67 246 19.0 28.0 0.00 0.00 0.00 23 1012.3
20260502181517 67 252 20.0 28.0 0.00 0.00 0.00 20 1013.1
20260502181007 67 243 20.0 27.0 0.00 0.00 0.00 21 1013.0
20260502180507 67 248 19.0 28.0 0.00 0.00 0.00 22 1013.0
20260502170506 65 237 14.0 23.0 0.00 0.00 0.00 28 1014.3
20260502164007 65 279 9.0 21.0 0.00 0.00 0.00 30 1014.7
20260502163509 65 235 16.0 21.0 0.00 0.00 0.00 28 1014.9
20260502163029 64 275 12.0 22.0 0.00 0.00 0.00 32 1014.3
20260502163026 64 248 13.0 22.0 0.00 0.00 0.00 29 1014.9
20260502162510 64 244 16.0 22.0 0.00 0.00 0.00 29 1015.1
20260502162007 64 271 8.0 19.0 0.00 0.00 0.00 29 1015.1
20260502161528 64 260 15.0 23.0 0.00 0.00 0.00 30 1015.2
20260502161007 63 270 15.0 24.0 0.00 0.00 0.00 30 1015.4
20260502160508 63 290 9.0 24.0 0.00 0.00 0.00 30 1015.5
20260502152010 56 235 12.0 18.0 0.00 0.00 0.00 48 1016.0
20260502151553 55 231 11.0 16.0 0.00 0.00 0.00 50 1016.0
20260502151515 55 238 11.0 15.0 0.00 0.00 0.00 50 1015.6
20260502151007 54 219 11.0 16.0 0.00 0.00 0.00 51 1016.0
20260502150512 54 233 10.0 16.0 0.00 0.00 0.00 54 1016.1
20260502130511 40 195 9.0 14.0 0.00 0.00 0.00 71 1017.2
20260502123510 37 174 8.0 12.0 0.00 0.00 0.00 74 1017.4
20260502123033 37 212 6.0 12.0 0.00 0.00 0.00 74 1017.5
20260502123027 37 217 6.0 12.0 0.00 0.00 0.00 75 1017.2
20260502122514 36 214 8.0 12.0 0.00 0.00 0.00 75 1017.5
20260502122007 36 214 7.0 10.0 0.00 0.00 0.00 76 1017.6
20260502121524 35 172 5.0 13.0 0.00 0.00 0.00 77 1017.3
20260502121520 35 204 5.0 13.0 0.00 0.00 0.00 76 1017.5
20260502121007 35 203 7.0 13.0 0.00 0.00 0.00 76 1017.6
20260502120506 34 217 7.0 11.0 0.00 0.00 0.00 76 1017.5
20260502115503 34 212 7.0 9.0 0.00 0.00 0.00 77 1017.5
20260502115003 34 196 7.0 10.0 0.00 0.00 0.00 77 1017.4
20260502114521 34 233 5.0 10.0 0.00 0.00 0.00 78 1017.1
20260502114509 34 174 5.0 10.0 0.00 0.00 0.00 77 1017.3
20260502114003 34 226 7.0 12.0 0.00 0.00 0.00 77 1017.3
20260502113503 34 190 7.0 12.0 0.00 0.00 0.00 77 1017.2
20260502113020 33 198 8.0 12.0 0.00 0.00 0.00 78 1017.2
20260502113012 33 187 8.0 12.0 0.00 0.00 0.00 77 1017.2
20260502112504 33 207 8.0 12.0 0.00 0.00 0.00 77 1017.3
20260502112006 33 202 7.0 11.0 0.00 0.00 0.00 78 1017.3
20260502111520 33 211 7.0 10.0 0.00 0.00 0.00 78 1017.4
20260502111518 33 203 6.0 10.0 0.00 0.00 0.00 78 1017.3
20260502111008 33 191 7.0 11.0 0.00 0.00 0.00 78 1017.4
20260502110507 33 205 7.0 11.0 0.00 0.00 0.00 78 1017.4
20260502110030 33 185 7.0 11.0 0.00 0.00 0.00 78 1017.5
20260502110016 33 200 7.0 11.0 0.00 0.00 0.00 78 1017.5
20260502105507 33 218 8.0 10.0 0.00 0.00 0.00 78 1017.5
20260502105009 33 203 6.0 9.0 0.00 0.00 0.00 78 1017.6
20260502104515 33 212 5.0 9.0 0.00 0.00 0.00 79 1017.6
20260502104507 33 201 6.0 11.0 0.00 0.00 0.00 78 1017.6
20260502104003 33 217 6.0 11.0 0.00 0.00 0.00 78 1017.7
20260502103503 33 211 5.0 9.0 0.00 0.00 0.00 78 1017.7
20260502103019 33 197 5.0 9.0 0.00 0.00 0.00 78 1017.8
20260502103008 33 193 6.0 9.0 0.00 0.00 0.00 78 1017.7
20260502102503 33 174 6.0 9.0 0.00 0.00 0.00 78 1017.8
20260502102004 33 208 5.0 9.0 0.00 0.00 0.00 78 1017.9
20260502101515 33 188 5.0 8.0 0.00 0.00 0.00 79 1017.9
20260502101511 33 167 5.0 8.0 0.00 0.00 0.00 79 1017.9
20260502101007 33 191 4.0 8.0 0.00 0.00 0.00 79 1017.9
20260502100507 33 200 4.0 7.0 0.00 0.00 0.00 79 1017.9
20260502091512 31 218 3.0 8.0 0.00 0.00 0.00 81 1018.4
20260502091006 31 200 3.0 6.0 0.00 0.00 0.00 81 1018.3
20260502090511 31 188 3.0 6.0 0.00 0.00 0.00 80 1018.4
20260502080104 31 202 2.0 5.0 0.00 0.00 0.00 81 1018.9
20260502071525 32 214 4.0 6.0 0.00 0.00 0.00 78 1019.3
20260502071009 32 219 3.0 6.0 0.00 0.00 0.00 78 1019.4
20260502070509 32 167 4.0 6.0 0.00 0.00 0.00 78 1019.5
20260502070042 32 199 2.0 6.0 0.00 0.00 0.00 79 1019.2
20260502070039 32 212 2.0 6.0 0.00 0.00 0.00 78 1019.5
20260502065503 32 145 3.0 6.0 0.00 0.00 0.00 78 1019.6
20260502065007 32 198 3.0 5.0 0.00 0.00 0.00 78 1019.6
20260502064554 32 179 2.0 5.0 0.00 0.00 0.00 78 1019.4
20260502064512 32 172 2.0 5.0 0.00 0.00 0.00 78 1019.6
20260502064008 33 184 2.0 5.0 0.00 0.00 0.00 78 1019.7
20260502063503 33 134 2.0 5.0 0.00 0.00 0.00 78 1019.6
20260502063039 33 216 3.0 5.0 0.00 0.00 0.00 79 1019.5
20260502063033 33 206 3.0 5.0 0.00 0.00 0.00 78 1019.7
20260502062507 33 198 2.0 4.0 0.00 0.00 0.00 78 1019.6
20260502062014 33 203 2.0 4.0 0.00 0.00 0.00 77 1019.6
20260502061535 33 191 2.0 5.0 0.00 0.00 0.00 77 1019.4
20260502061521 33 206 2.0 5.0 0.00 0.00 0.00 76 1019.6
20260502061010 33 210 3.0 5.0 0.00 0.00 0.00 76 1019.7
20260502060507 33 202 4.0 5.0 0.00 0.00 0.00 76 1019.7
20260502060038 34 209 2.0 5.0 0.00 0.00 0.00 76 1019.4
20260502060024 34 150 3.0 5.0 0.00 0.00 0.00 76 1019.7
20260502055509 34 200 3.0 5.0 0.00 0.00 0.00 75 1019.7
20260502055009 34 198 2.0 4.0 0.00 0.00 0.00 76 1019.8
20260502054534 34 198 2.0 4.0 0.00 0.00 0.00 76 1019.8
20260502054532 34 200 2.0 4.0 0.00 0.00 0.00 77 1019.5
20260502054007 34 205 2.0 4.0 0.00 0.00 0.00 75 1019.8
20260502053503 34 191 2.0 4.0 0.00 0.00 0.00 74 1019.8
20260502053029 34 203 2.0 3.0 0.00 0.00 0.00 75 1019.4
20260502053014 34 191 2.0 3.0 0.00 0.00 0.00 75 1019.8
20260502052508 35 175 1.0 4.0 0.00 0.00 0.00 75 1019.7
20260502052009 35 203 3.0 4.0 0.00 0.00 0.00 75 1019.7
20260502051532 35 191 2.0 4.0 0.00 0.00 0.00 75 1019.4
20260502051519 35 195 2.0 4.0 0.00 0.00 0.00 75 1019.6
20260502051010 35 164 1.0 3.0 0.00 0.00 0.00 73 1019.6
20260502050510 35 151 1.0 2.0 0.00 0.00 0.00 72 1019.6
20260502050035 35 155 2.0 3.0 0.00 0.00 0.00 71 1019.6
20260502050026 35 172 1.0 3.0 0.00 0.00 0.00 72 1019.4
20260502045507 36 180 1.0 4.0 0.00 0.00 0.00 70 1019.7
20260502045007 36 188 2.0 4.0 0.00 0.00 0.00 69 1019.6
20260502044533 36 153 1.0 5.0 0.00 0.00 0.00 69 1019.3
20260502044526 36 178 2.0 6.0 0.00 0.00 0.00 69 1019.5
20260502044008 36 167 1.0 6.0 0.00 0.00 0.00 68 1019.5
20260502043509 37 191 2.0 4.0 0.00 0.00 0.00 67 1019.5
20260502043025 37 160 1.0 5.0 0.00 0.00 0.00 67 1019.5
20260502043023 37 161 1.0 4.0 0.00 0.00 0.00 67 1019.2